Location: Le Petit-Vavre
(46.5081°N, 1.5239°E)
Time: 21:34:13
(UTC+00:00)

Cosmos 1500 - Pass Details

Date: 03 March 2021
Orbit: 499 x 517 km, 82.5° (Epoch: 22 April)

Event Time Altitude Azimuth Distance (km) Brightness Sun altitude
Rises 18:46:14 0° 178° (S) 2,578 6.7 -11.7°
Reaches altitude 10° 18:48:21 10° 174° (S) 1,699 5.7 -12.0°
Maximum altitude 18:52:00 58° 96° (E) 589 3.1 -12.7°
Drops below altitude 10° 18:55:41 10° 17° (NNE) 1,715 5.7 -13.3°
Sets 18:57:50 0° 13° (NNE) 2,605 6.7 -13.7°
